| time (UTC) | temp C | wind direction | speed KPH | gust KPH | rain 1hr cm | rain 24hr cm | rain mn cm | humidity % | barometer mb |
| 20260906173009 | 26 | 248 | 0.0 | 4.8 | 0.00 | 0.00 | 0.00 | 59 | 1021.5 |
| 20260906171510 | 26 | 248 | 0.0 | 3.2 | 0.00 | 0.00 | 0.00 | 61 | 1021.5 |
| 20260906170016 | 25 | 248 | 1.6 | 4.8 | 0.00 | 0.00 | 0.00 | 60 | 1021.5 |
| 20260906164524 | 25 | 248 | 0.0 | 3.2 | 0.00 | 0.00 | 0.00 | 60 | 1021.7 |
| 20260906163031 | 24 | 248 | 0.0 | 3.2 | 0.00 | 0.00 | 0.00 | 63 | 1021.7 |
| 20260906161522 | 24 | 248 | 0.0 | 4.8 | 0.00 | 0.00 | 0.00 | 68 | 1021.6 |
| 20260906160014 | 23 | 248 | 0.0 | 4.8 | 0.00 | 0.00 | 0.00 | 66 | 1021.8 |
| 20260906154523 | 23 | 248 | 1.6 | 3.2 | 0.00 | 0.00 | 0.00 | 68 | 1021.8 |
| 20260906153040 | 22 | 248 | 0.0 | 1.6 | 0.00 | 0.00 | 0.00 | 78 | 1021.9 |
| 20260906151508 | 21 | 248 | 0.0 | 1.6 | 0.00 | 0.00 | 0.00 | 78 | 1022.0 |
| 20260906150010 | 20 | 247 | 0.0 | 3.2 | 0.00 | 0.00 | 0.00 | 79 | 1022.0 |
| 20260906144523 | 18 | 248 | 0.0 | 1.6 | 0.00 | 0.00 | 0.00 | 90 | 1022.2 |
| 20260906143022 | 16 | 248 | 0.0 | 1.6 | 0.00 | 0.00 | 0.00 | 98 | 1021.9 |
| 20260906141531 | 15 | 248 | 0.0 | 0.0 | 0.00 | 0.00 | 0.00 | 98 | 1021.8 |
| 20260906140014 | 13 | 248 | 0.0 | 0.0 | 0.00 | 0.00 | 0.00 | 98 | 1022.0 |
| 20260906134520 | 13 | 248 | 0.0 | 0.0 | 0.00 | 0.00 | 0.00 | 98 | 1022.1 |
| 20260906133031 | 12 | 248 | 0.0 | 0.0 | 0.00 | 0.00 | 0.00 | 98 | 1022.0 |
| 20260906131541 | 11 | 248 | 0.0 | 0.0 | 0.00 | 0.00 | 0.00 | 98 | 1022.0 |
| 20260906130035 | 10 | 248 | 0.0 | 0.0 | 0.00 | 0.00 | 0.00 | 98 | 1021.9 |
| 20260906124521 | 9 | 248 | 0.0 | 0.0 | 0.00 | 0.00 | 0.00 | 98 | 1021.8 |
| 20260906123030 | 9 | 248 | 0.0 | 0.0 | 0.00 | 0.00 | 0.00 | 98 | 1021.5 |
| 20260906121535 | 8 | 248 | 0.0 | 0.0 | 0.00 | 0.00 | 0.00 | 97 | 1021.5 |
| 20260906120030 | 8 | 248 | 0.0 | 0.0 | 0.00 | 0.00 | 0.00 | 97 | 1021.5 |
| 20260906114541 | 8 | 248 | 0.0 | 0.0 | 0.00 | 0.00 | 0.00 | 97 | 1021.4 |
| 20260906113021 | 8 | 248 | 0.0 | 0.0 | 0.00 | 0.00 | 0.00 | 97 | 1021.4 |
| 20260906111529 | 8 | 248 | 0.0 | 0.0 | 0.00 | 0.00 | 0.00 | 97 | 1021.5 |
| 20260906110027 | 8 | 248 | 0.0 | 0.0 | 0.00 | 0.00 | 0.00 | 97 | 1021.3 |
| 20260906104535 | 8 | 248 | 0.0 | 0.0 | 0.00 | 0.00 | 0.00 | 97 | 1021.1 |
| 20260906103018 | 8 | 248 | 0.0 | 0.0 | 0.00 | 0.03 | 0.00 | 97 | 1021.0 |
| 20260906101530 | 8 | 248 | 0.0 | 0.0 | 0.00 | 0.03 | 0.00 | 97 | 1021.0 |
| 20260906100033 | 8 | 248 | 0.0 | 0.0 | 0.00 | 0.03 | 0.00 | 97 | 1021.0 |
| 20260906094539 | 9 | 248 | 0.0 | 0.0 | 0.00 | 0.03 | 0.00 | 97 | 1021.0 |
| 20260906093015 | 9 | 248 | 0.0 | 0.0 | 0.00 | 0.03 | 0.00 | 97 | 1021.0 |
| 20260906091526 | 9 | 248 | 0.0 | 0.0 | 0.00 | 0.03 | 0.00 | 97 | 1021.1 |
| 20260906090028 | 9 | 248 | 0.0 | 0.0 | 0.00 | 0.03 | 0.00 | 97 | 1021.0 |
| 20260906084532 | 10 | 248 | 0.0 | 0.0 | 0.00 | 0.03 | 0.00 | 97 | 1021.1 |
| 20260906083014 | 9 | 248 | 0.0 | 0.0 | 0.00 | 0.03 | 0.00 | 97 | 1021.1 |
| 20260906081520 | 10 | 248 | 0.0 | 0.0 | 0.00 | 0.03 | 0.00 | 97 | 1021.0 |
| 20260906080034 | 10 | 248 | 0.0 | 0.0 | 0.00 | 0.03 | 0.00 | 96 | 1020.9 |
| 20260906074532 | 10 | 248 | 0.0 | 0.0 | 0.00 | 0.03 | 0.00 | 96 | 1020.7 |
| 20260906073030 | 10 | 248 | 0.0 | 0.0 | 0.00 | 0.03 | 0.00 | 97 | 1020.6 |
| 20260906071525 | 10 | 248 | 0.0 | 0.0 | 0.00 | 0.03 | 0.00 | 96 | 1020.6 |
| 20260906070024 | 10 | 248 | 0.0 | 0.0 | 0.00 | 0.03 | 0.00 | 96 | 1020.6 |
| 20260906064529 | 10 | 248 | 0.0 | 0.0 | 0.00 | 0.03 | 0.00 | 96 | 1020.7 |
| 20260906063034 | 11 | 248 | 0.0 | 0.0 | 0.00 | 0.03 | 0.00 | 97 | 1020.7 |
| 20260906061515 | 11 | 248 | 0.0 | 0.0 | 0.00 | 0.03 | 0.00 | 96 | 1020.6 |
| 20260906060024 | 11 | 248 | 0.0 | 0.0 | 0.00 | 0.03 | 0.00 | 96 | 1020.4 |
| 20260906054530 | 11 | 248 | 0.0 | 0.0 | 0.00 | 0.03 | 0.00 | 96 | 1020.2 |
| 20260906053029 | 11 | 248 | 0.0 | 0.0 | 0.00 | 0.03 | 0.00 | 95 | 1020.1 |
| 20260906051536 | 11 | 248 | 0.0 | 0.0 | 0.00 | 0.03 | 0.00 | 95 | 1020.1 |
| 20260906050018 | 11 | 248 | 0.0 | 0.0 | 0.00 | 0.03 | 0.00 | 95 | 1020.1 |
| 20260906044524 | 11 | 248 | 0.0 | 0.0 | 0.00 | 0.03 | 0.03 | 95 | 1019.9 |
| 20260906043032 | 12 | 248 | 0.0 | 0.0 | 0.00 | 0.03 | 0.03 | 95 | 1019.8 |
| 20260906041531 | 12 | 248 | 0.0 | 0.0 | 0.00 | 0.03 | 0.03 | 94 | 1020.1 |
| 20260906040036 | 12 | 248 | 0.0 | 0.0 | 0.00 | 0.03 | 0.03 | 94 | 1020.0 |
| 20260906034527 | 12 | 248 | 0.0 | 0.0 | 0.00 | 0.03 | 0.03 | 94 | 1019.8 |
| 20260906033032 | 13 | 248 | 0.0 | 0.0 | 0.00 | 0.03 | 0.03 | 94 | 1019.6 |
| 20260906031532 | 13 | 248 | 0.0 | 0.0 | 0.00 | 0.03 | 0.03 | 94 | 1019.6 |
| 20260906030030 | 13 | 248 | 0.0 | 0.0 | 0.00 | 0.03 | 0.03 | 93 | 1019.7 |
| 20260906024514 | 14 | 248 | 0.0 | 0.0 | 0.00 | 0.03 | 0.03 | 93 | 1019.7 |
| 20260906023029 | 14 | 248 | 0.0 | 0.0 | 0.00 | 0.03 | 0.03 | 93 | 1019.6 |
| 20260906021538 | 15 | 248 | 0.0 | 0.0 | 0.00 | 0.03 | 0.03 | 93 | 1019.5 |
| 20260906020031 | 15 | 248 | 0.0 | 0.0 | 0.00 | 0.03 | 0.03 | 93 | 1019.4 |
| 20260906014530 | 16 | 248 | 0.0 | 0.0 | 0.00 | 0.03 | 0.03 | 93 | 1019.2 |
| 20260906013020 | 16 | 248 | 0.0 | 0.0 | 0.00 | 0.03 | 0.03 | 93 | 1018.9 |
| 20260906011525 | 16 | 248 | 0.0 | 0.0 | 0.00 | 0.03 | 0.03 | 93 | 1018.9 |
| 20260906010030 | 16 | 248 | 0.0 | 0.0 | 0.00 | 0.03 | 0.03 | 93 | 1019.0 |
| 20260906004533 | 17 | 248 | 0.0 | 0.0 | 0.00 | 0.03 | 0.03 | 92 | 1018.6 |
| 20260906003036 | 17 | 248 | 0.0 | 0.0 | 0.00 | 0.03 | 0.03 | 91 | 1018.5 |
| 20260906001541 | 17 | 248 | 0.0 | 0.0 | 0.00 | 0.03 | 0.03 | 90 | 1018.4 |
| 20260906000028 | 18 | 248 | 0.0 | 0.0 | 0.00 | 0.03 | 0.03 | 88 | 1018.4 |
| 20260905234533 | 19 | 248 | 0.0 | 0.0 | 0.00 | 0.03 | 0.03 | 86 | 1018.3 |
| 20260905233018 | 20 | 248 | 0.0 | 0.0 | 0.00 | 0.03 | 0.03 | 84 | 1018.2 |
| 20260905231523 | 20 | 248 | 0.0 | 0.0 | 0.00 | 0.05 | 0.03 | 81 | 1018.2 |
| 20260905230031 | 21 | 248 | 0.0 | 0.0 | 0.00 | 0.05 | 0.03 | 80 | 1018.2 |
| 20260905224530 | 21 | 248 | 0.0 | 0.0 | 0.00 | 0.05 | 0.03 | 76 | 1018.2 |
| 20260905223025 | 22 | 248 | 0.0 | 0.0 | 0.00 | 0.05 | 0.03 | 73 | 1018.1 |
| 20260905221522 | 22 | 248 | 0.0 | 1.6 | 0.00 | 0.05 | 0.03 | 74 | 1018.3 |
| 20260905220027 | 22 | 248 | 0.0 | 1.6 | 0.00 | 0.05 | 0.03 | 76 | 1018.2 |
| 20260905214531 | 22 | 248 | 0.0 | 0.0 | 0.00 | 0.05 | 0.03 | 73 | 1018.4 |
| 20260905213033 | 23 | 248 | 0.0 | 0.0 | 0.00 | 0.08 | 0.03 | 74 | 1018.4 |
| 20260905211514 | 24 | 248 | 0.0 | 3.2 | 0.00 | 0.08 | 0.03 | 64 | 1018.4 |
| 20260905210033 | 25 | 248 | 0.0 | 4.8 | 0.00 | 0.08 | 0.03 | 60 | 1018.2 |
| 20260905204525 | 24 | 248 | 1.6 | 4.8 | 0.00 | 0.08 | 0.03 | 61 | 1018.1 |
| 20260905203007 | 24 | 248 | 0.0 | 3.2 | 0.00 | 0.08 | 0.03 | 60 | 1017.9 |
| 20260905201520 | 25 | 248 | 0.0 | 1.6 | 0.00 | 0.08 | 0.03 | 64 | 1018.3 |
| 20260905200031 | 25 | 248 | 0.0 | 3.2 | 0.00 | 0.08 | 0.03 | 62 | 1018.4 |
| 20260905194504 | 26 | 248 | 1.6 | 3.2 | 0.00 | 0.08 | 0.03 | 57 | 1018.5 |
| 20260905193015 | 25 | 248 | 0.0 | 3.2 | 0.00 | 0.08 | 0.03 | 62 | 1018.5 |
| 20260905191508 | 25 | 248 | 1.6 | 1.6 | 0.00 | 0.08 | 0.03 | 63 | 1018.6 |
| 20260905190014 | 26 | 248 | 0.0 | 3.2 | 0.00 | 0.08 | 0.03 | 59 | 1018.7 |
| 20260905184504 | 26 | 248 | 1.6 | 3.2 | 0.00 | 0.08 | 0.03 | 58 | 1018.6 |
| 20260905183003 | 25 | 248 | 0.0 | 4.8 | 0.00 | 0.10 | 0.03 | 60 | 1018.8 |
| 20260905181508 | 25 | 248 | 1.6 | 6.4 | 0.00 | 0.10 | 0.03 | 61 | 1019.2 |
| 20260905180011 | 25 | 248 | 1.6 | 4.8 | 0.00 | 0.10 | 0.03 | 63 | 1019.2 |
| 20260905174522 | 23 | 248 | 1.6 | 3.2 | 0.00 | 0.10 | 0.03 | 68 | 1019.3 |